www.pogodaiklimat.ru

Погода и климат >> Архив погоды >> Словения >> Порторож


ПОГОДА в Портороже

  • Прогноз погоды в Портороже
  • Монитор погоды в Портороже

АРХИВ ПОГОДЫ в Портороже

Время (UTC), дата Ветер
(напр.,м/с)
 
Видим.   Явления Облачность Т
(С)
Тd
(С)
f
(%)
Тe
(С)
Тes
(С)
Комфортность P
(гПа)
Po
(гПа)
Тmin
(С)
Tmax
(С)
R
(мм)
R24
(мм)
S
(см)
04 12.07 ЮВ 3
{4}
20 км 3/0
[Ac trans]
+15.7 +14.9 95 +15 +15 1012.6 1012.2
05 12.07 ЮВ 2
{4}
50 км 3/0
[Ac trans]
+16.4 +15.3 93 +16 +18 1012.8 1012.4
06 12.07 ЮВ 2
{4}
50 км 3/0
[Ac trans]
+18.3 +16.1 87 +19 +22 1013.1 1012.7 +15.6 3
07 12.07 ЮВ 1
{2}
50 км 3/0
[Ci sp]
+21.3 +16.5 74 +25 +33 комфорт 1012.9 1012.5
08 12.07 З 2
{2}
50 км 3/0
[Ci sp]
+22.4 +15.7 66 +26 +37 жарко 1012.9 1012.5
09 12.07 СЗ 2
{3}
50 км 3/0
[Ci sp]
+24.2 +17.5 66 +28 +42 душно 1012.9 1012.5
10 12.07 СЗ 2
{3}
50 км 3/1 1500 м
[Cu med, cong Ci sp]
+24.9 +15.6 56 +28 +43 жарко 1012.6 1012.2
11 12.07 З 4
{5}
50 км 1/1 1500 м
[Cu med, cong Ci fib]
+25.6 +15.2 53 +29 +40 душно 1012.4 1012.0
12 12.07 З 3
{5}
50 км 1/1 1500 м
[Cu med, cong Ci fib]
+25.8 +16.0 55 +29 +43 душно 1012.0 1011.6
13 12.07 З 3
{6}
50 км 1/1 1500 м
[Cb cap Ci ing]
+26.1 +16.7 56 +30 +41 душно 1011.6 1011.2
14 12.07 ЮЗ 3
{5}
50 км 3/1 1500 м
[Cb cap Ci sp]
+26.2 +16.4 55 +30 +38 душно 1011.2 1010.8
15 12.07 З 2
{4}
50 км гроза без осадков 4/1 1500 м
[Cb cap Ci sp]
+25.7 +16.5 57 +29 +36 душно 1011.1 1010.7
16 12.07 З 3
{4}
50 км в посл. час гроза 5/1 1500 м
[Cu med, cong Ci sp]
+25.8 +16.7 57 +29 +33 душно 1011.0 1010.6
17 12.07 З 2
{4}
50 км 5/1 1500 м
[Cu med, cong Ac trans Ci fib]
+25.1 +16.4 59 +29 +30 душно 1010.9 1010.5
18 12.07 ЮВ 1
{2}
50 км {гроза} 5/0
[Ac trans Ci fib]
+23.9 +16.4 63 +27 +28 жарко 1010.7 1010.3 +26.8
19 12.07 штиль 0
{1}
50 км 6/0
[Ac trans]
+22.4 +16.5 69 +27 +27 душно 1010.8 1010.4
20 12.07 ЮВ 3
{4}
50 км 3/0
[Ac trans]
+19.3 +16.9 86 +21 +21 комфорт 1011.3 1010.9
21 12.07 ЮВ 4
{5}
45 км н/о +18.7 +16.4 86 +20 +20 1011.5 1011.1
22 12.07 ЮВ 4
{5}
45 км н/о +18.3 +16.1 87 +19 +19 1011.5 1011.1
23 12.07 ЮВ 4
{5}
40 км н/о +18.1 +16.2 89 +18 +18 1011.1 1010.7
00 13.07 ЮВ 4
{5}
40 км н/о +17.8 +15.9 89 +18 +18 1010.6 1010.2
01 13.07 ЮВ 4
{5}
35 км н/о +17.8 +16.0 89 +18 +18 1010.4 1010.0
02 13.07 ЮВ 3
{5}
40 км н/о +18.0 +16.2 89 +18 +18 1009.9 1009.5
03 13.07 ЮВ 3
{4}
30 км слаб. дождь н/о +18.5 +16.7 89 +19 +19 1009.5 1009.1
04 13.07 В 2 20 км гроза, ливневой дождь 9/5 1000 м
[Cb cap Ac As]
+18.5 +17.1 92 +20 +20 1009.7 1009.3
05 13.07 ЮВ 2 20 км в посл. час гроза {ливн. осадки} 10/1 1000 м
[Cu Sc Ac As]
+18.9 +17.7 93 +21 +21 комфорт 1009.6 1009.2
06 13.07 ЮВ 3
{5}
40 км {гроза, ливн. осадки} 9/3 1000 м
[Cu Sc Ac As]
+19.7 +17.1 85 +22 +23 комфорт 1009.8 1009.4 +17.6 0.0
07 13.07 ЮВ 3
{4}
40 км 6/4 1000 м
[Cu Sc Ac trans]
+22.2 +17.2 73 +27 +30 душно 1010.0 1009.6
08 13.07 В 3
{4}
50 км 3/1 1500 м
[Cu hum Ac trans]
+24.1 +16.0 61 +27 +35 жарко 1010.1 1009.7
09 13.07 Ю 1
{3}
50 км 3/1 1500 м
[Cu hum Ac trans]
+25.7 +13.2 46 +28 +41 жарко 1010.3 1009.9
10 13.07 СЗ 3
{6}
50 км 3/3 1000 м
[Cu med, cong Ac trans Ci fib]
+25.7 +15.6 54 +29 +39 душно 1010.7 1010.3
11 13.07 З 4
{7}
50 км 3/3 1000 м
[Cu med, cong Ci ing]
+25.8 +15.1 52 +29 +37 душно 1010.4 1010.0
12 13.07 З 4
{8}
50 км 3/3 900 м
[Cb cap Ci ing]
+26.6 +17.4 57 +31 +39 душно 1010.4 1010.0
13 13.07 В 7 50 км гроза без осадков 9/9 900 м
[Cb cap]
+22.6 +9.9 44 +24 +25 комфорт 1011.1 1010.7
14 13.07 ЮВ 2 50 км в посл. час гроза 9/6 750 м
[Cu Sc Ac As]
+19.5 +13.8 70 +22 +24 комфорт 1011.2 1010.8
15 13.07 ЮВ 3
{4}
50 км {гроза, ливн. осадки} 9/3 1500 м
[Sc Ac As]
+18.9 +14.9 78 +20 +22 1010.5 1010.1
16 13.07 ЮВ 3
{5}
50 км 9/3 900 м
[Cu Sc Ac trans Cs]
+18.5 +14.3 77 +19 +21 1010.6 1010.2
17 13.07 ЮВ 4
{4}
50 км 9/3 900 м
[Cu Sc Ac As]
+18.4 +15.0 81 +19 +19 1010.6 1010.2
18 13.07 ЮВ 2
{4}
50 км {гроза, ливн. осадки} 8/0
[Ac As]
+18.4 +14.9 80 +19 +20 1011.1 1010.7 +26.7 0.0
19 13.07 ЮВ 2
{3}
50 км 5/0
[Ac trans Ci sp]
+17.6 +15.3 86 +18 +18 1011.9 1011.5
20 13.07 ЮВ 3
{5}
50 км 3/0
[Ac trans Ci sp]
+16.6 +14.8 89 +16 +16 1012.4 1012.0
21 13.07 ЮВ 4
{5}
50 км н/о +15.5 +14.1 91 +14 +14 1012.7 1012.3
22 13.07 ЮВ 4
{6}
50 км н/о +15.2 +13.6 90 +14 +14 1012.6 1012.2
23 13.07 ЮВ 3
{4}
50 км н/о +14.7 +12.8 88 +14 +14 1012.7 1012.3
00 14.07 ЮВ 4
{6}
50 км н/о +14.1 +12.5 90 +13 +13 1012.8 1012.4
01 14.07 ЮВ 4
{5}
50 км н/о +13.2 +11.9 92 +11 +11 1012.4 1012.0
02 14.07 ЮВ 4
{5}
50 км н/о +13.3 +11.6 89 +12 +12 1011.8 1011.4
03 14.07 ЮВ 4
{5}
50 км н/о +13.2 +11.6 90 +11 +11 1011.7 1011.3
04 14.07 ЮВ 4
{5}
50 км ясно +13.4 +11.3 87 +12 +12 1011.8 1011.4
05 14.07 ЮВ 3
{5}
50 км ясно +14.6 +11.8 83 +14 +15 1011.9 1011.5
06 14.07 ЮВ 3
{4}
50 км 1/0
[Ac trans]
+17.4 +12.8 74 +17 +20 1012.1 1011.7 +12.8
07 14.07 ЮВ 1
{3}
50 км 1/0
[Ac trans]
+21.6 +12.4 56 +24 +32 комфорт 1012.4 1012.0
08 14.07 З 1
{1}
50 км 1/0
[Ac trans]
+23.6 +14.1 55 +26 +38 жарко 1012.6 1012.2
09 14.07 СЗ 3
{3}
50 км 1/1 1500 м
[Cu hum Ac trans]
+24.5 +15.7 58 +28 +39 душно 1012.6 1012.2
10 14.07 СЗ 3
{4}
50 км 3/1 1500 м
[Cu hum Ac trans]
+25.4 +12.9 46 +27 +39 жарко 1012.5 1012.1
11 14.07 СЗ 3
{5}
50 км 1/1 1500 м
[Cu med, cong Ac trans]
+25.9 +14.7 50 +28 +42 жарко 1012.3 1011.9
12 14.07 З 3
{6}
50 км 1/1 1500 м
[Cu med, cong Ac trans]
+26.7 +12.6 42 +28 +42 жарко 1012.1 1011.7
13 14.07 З 3
{5}
50 км 1/1 1500 м
[Cu med, cong Ac trans Ci fib]
+27.0 +12.2 40 +28 +40 жарко 1011.6 1011.2
14 14.07 З 3
{6}
50 км 1/1 1200 м
[Cu med, cong Ac trans]
+26.8 +13.1 43 +29 +38 жарко 1011.4 1011.0
15 14.07 СЗ 2
{4}
50 км 1/1 1200 м
[Cu med, cong Ac trans Ci ing]
+26.7 +14.8 48 +29 +36 жарко 1011.1 1010.7
16 14.07 СЗ 3
{4}
50 км 1/1 1200 м
[Cu med, cong Ac trans]
+26.4 +15.9 52 +30 +33 душно 1011.0 1010.6
17 14.07 С 2
{4}
50 км 1/1 1200 м
[Cu hum Ac trans Ci sp]
+26.2 +14.2 48 +29 +30 жарко 1011.0 1010.6
18 14.07 СВ 3
{4}
50 км 1/0
[Ac trans Ci fib]
+25.0 +14.9 53 +28 +28 жарко 1010.7 1010.3 +27.2
19 14.07 ЮВ 2
{2}
50 км 3/0
[Ac und]
+22.5 +15.1 63 +26 +26 жарко 1011.0 1010.6
20 14.07 ЮВ 3
{4}
50 км 3/0
[Ac trans]
+19.7 +14.6 72 +22 +22 комфорт 1011.3 1010.9
21 14.07 ЮВ 3
{4}
50 км н/о +17.9 +14.1 78 +18 +18 1011.5 1011.1
22 14.07 ЮВ 4
{5}
50 км н/о +17.7 +13.3 75 +17 +17 1011.3 1010.9
23 14.07 ЮВ 3
{4}
50 км н/о +17.4 +13.0 75 +17 +17 1011.1 1010.7
00 15.07 ЮВ 2
{4}
50 км н/о +16.7 +13.0 79 +17 +17 1011.1 1010.7
01 15.07 ЮВ 2
{3}
50 км н/о +17.1 +13.0 77 +17 +17 1010.7 1010.3
02 15.07 ЮВ 3
{4}
50 км н/о +17.8 +12.5 71 +18 +18 1010.3 1009.9
03 15.07 штиль 0
{3}
50 км 9/4 1200 м
[Cu Sc Ac As]
+17.1 +12.6 75 +17 +17 1010.3 1009.9
04 15.07 ЮВ 2
{2}
50 км 6/0
[Ac trans Cs]
+16.6 +12.8 78 +17 +17 1010.3 1009.9
05 15.07 ЮВ 2
{2}
50 км 8/0
[Ac trans Cs]
+18.0 +12.9 72 +19 +20 1010.1 1009.7
06 15.07 ЮВ 2
{4}
50 км 6/0
[Ac trans Cs]
+21.3 +13.7 62 +24 +27 комфорт 1010.2 1009.8 +16.4
07 15.07 В 3
{6}
50 км 8/0
[Ac trans Cs]
+23.3 +11.4 47 +26 +30 жарко 1010.4 1010.0
08 15.07 В 2
{4}
50 км 8/0
[Ac trans Cs]
+24.1 +11.5 45 +26 +34 жарко 1010.5 1010.1
09 15.07 В 3
{5}
50 км 8/0
[Ac trans Cs]
+26.0 +12.1 42 +27 +37 жарко 1010.7 1010.3
10 15.07 В 2
{5}
50 км 8/0
[Ac trans Cs]
+27.1 +12.6 41 +29 +43 жарко 1010.6 1010.2
11 15.07 СВ 4
{6}
50 км 8/1 1500 м
[Cu hum Cs]
+26.6 +11.2 38 +28 +37 жарко 1010.6 1010.2
12 15.07 В 4
{7}
50 км 8/1 1500 м
[Cu hum Cs]
+26.6 +11.7 39 +28 +37 жарко 1010.5 1010.1
13 15.07 СВ 3
{7}
50 км 9/3 1500 м
[Cu med, cong As op Cs]
+26.8 +11.9 40 +28 +33 жарко 1010.6 1010.2
14 15.07 ЮВ 3
{5}
50 км 9/3 1500 м
[Cu med, cong As op Cs]
+27.7 +12.7 40 +29 +33 жарко 1010.8 1010.4
15 15.07 ЮВ 2
{4}
50 км 8/1 1500 м
[Cu hum Cs]
+28.0 +11.8 37 +29 +35 жарко 1010.7 1010.3
16 15.07 ЮВ 1
{5}
50 км 6/1 1500 м
[Cu hum Cs]
+27.3 +10.8 36 +28 +32 жарко 1010.4 1010.0
17 15.07 З 3
{5}
50 км 8/3 1500 м
[Cu hum Cs]
+25.7 +13.5 47 +28 +29 жарко 1010.9 1010.5
18 15.07 СЗ 4
{4}
50 км 8/0 2000 м
[Ac trans Cs]
+24.4 +14.7 55 +27 +27 жарко 1011.4 1011.0 +28.4
19 15.07 СВ 1
{5}
50 км н/о +23.7 +14.2 55 +26 +26 жарко 1011.7 1011.3
20 15.07 ЮВ 2
{4}
50 км 4/0
[Ac trans Ci fib]
+19.6 +13.2 67 +22 +22 комфорт 1012.2 1011.8
21 15.07 ЮВ 2
{4}
50 км н/о +18.6 +12.4 67 +20 +20 1012.5 1012.1
22 15.07 ЮВ 2
{3}
50 км н/о +18.2 +11.3 64 +19 +19 1012.8 1012.4
23 15.07 ЮВ 3
{4}
50 км н/о +17.5 +11.8 69 +18 +18 1012.7 1012.3
00 16.07 В 2
{3}
50 км н/о +17.9 +10.9 64 +18 +18 1012.9 1012.5
01 16.07 В 2
{3}
50 км н/о +19.6 +10.4 55 +21 +21 комфорт 1012.6 1012.2
02 16.07 В 3
{4}
50 км н/о +18.5 +10.6 60 +19 +19 1012.4 1012.0
03 16.07 СВ 3
{5}
50 км н/о +19.9 +10.5 55 +22 +22 комфорт 1012.5 1012.1
04 16.07 В 3
{5}
50 км ясно +18.9 +10.5 58 +20 +20 1012.6 1012.2
05 16.07 В 3
{5}
50 км ясно +20.9 +10.4 51 +23 +24 комфорт 1013.0 1012.6
06 16.07 В 4
{6}
50 км ясно +22.8 +10.8 47 +25 +27 комфорт 1013.1 1012.7 +15.8
07 16.07 СВ 4
{6}
50 км ясно +24.2 +10.9 43 +25 +30 комфорт 1013.2 1012.8
08 16.07 СВ 4
{7}
50 км ясно +26.0 +10.1 37 +27 +34 жарко 1013.1 1012.7
09 16.07 СВ 4
{6}
45 км н/о +27.4 +10.2 34 +28 +28 жарко 1013.1 1012.7
10 16.07 СВ 4
{7}
50 км 1/1 1500 м
[Cu hum]
+27.8 +9.3 31 +28 +38 жарко 1013.0 1012.6
11 16.07 В 4
{10}
50 км 1/1 1500 м
[Cu hum Ac trans]
+29.2 +7.7 26 +28 +40 жарко 1013.1 1012.7
12 16.07 СЗ 5
{7}
50 км 1/0
[Ac trans]
+26.7 +14.0 46 +29 +38 жарко 1012.5 1012.1
13 16.07 СЗ 6
{8}
50 км 1/1 1500 м
[Cu hum Ac trans]
+27.6 +14.3 44 +30 +35 жарко 1012.4 1012.0
14 16.07 СЗ 5
{7}
50 км 1/1 1500 м
[Cu hum Ac trans]
+27.8 +14.3 44 +30 +36 жарко 1012.1 1011.7
15 16.07 СЗ 5
{7}
50 км 1/1 1500 м
[Cu hum]
+27.9 +15.7 47 +31 +35 душно 1011.9 1011.5
16 16.07 СЗ 5
{6}
50 км 1/1 1500 м
[Cu hum]
+27.4 +15.2 47 +30 +32 жарко 1011.6 1011.2
17 16.07 СЗ 5
{6}
50 км ясно +26.9 +17.8 57 +31 +32 душно 1011.6 1011.2
18 16.07 З 2
{4}
50 км ясно +26.4 +16.2 53 +30 +30 душно 1011.9 1011.5 +29.3
19 16.07 ЮВ 1
{2}
50 км ясно +23.8 +16.7 64 +27 +27 жарко 1012.4 1012.0
20 16.07 ЮВ 3
{3}
50 км ясно +20.6 +15.3 72 +24 +24 комфорт 1012.9 1012.5
21 16.07 ЮВ 4
{5}
50 км н/о +19.5 +14.8 74 +21 +21 комфорт 1013.0 1012.6
22 16.07 ЮВ 4
{5}
50 км н/о +18.9 +14.5 76 +20 +20 1013.4 1013.0
23 16.07 ЮВ 4
{5}
50 км н/о +18.0 +14.4 79 +18 +18 1013.7 1013.3
00 17.07 ЮВ 3
{5}
50 км н/о +17.7 +14.6 82 +18 +18 1013.8 1013.4
01 17.07 ЮВ 4
{6}
50 км н/о +17.1 +14.2 83 +17 +17 1013.6 1013.2
02 17.07 ЮВ 5
{6}
50 км н/о +16.7 +13.9 84 +16 +16 1013.5 1013.1
03 17.07 ЮВ 5
{6}
50 км н/о +16.7 +13.7 82 +16 +16 1013.3 1012.9
04 17.07 ЮВ 5
{6}
50 км 1/0
[Ac trans]
+16.3 +13.5 83 +15 +15 1013.4 1013.0
05 17.07 ЮВ 4
{6}
50 км 1/0
[Ac trans]
+17.7 +13.9 78 +17 +18 1013.4 1013.0
06 17.07 ЮВ 3
{5}
50 км 1/0
[Ac trans]
+21.2 +15.2 69 +24 +27 комфорт 1013.5 1013.1 +16.2
07 17.07 В 1
{2}
50 км 3/0
[Ac trans Ci fib]
+26.1 +17.3 58 +30 +38 душно 1013.6 1013.2
08 17.07 штиль 0
{2}
50 км 4/0
[Ac trans Ci fib]
+27.2 +17.3 55 +31 +44 душно 1013.4 1013.0
09 17.07 С 1
{3}
50 км 5/0
[Ci]
+27.8 +18.3 56 +33 +48 очень
душно
1013.0 1012.6
10 17.07 СЗ 2
{4}
40 км 9/1 1500 м
[Cu hum Cs]
+27.9 +16.7 51 +32 +44 душно 1012.8 1012.4
11 17.07 СЗ 4
{5}
40 км 9/1 1500 м
[Cu hum As trans Cs]
+27.1 +18.3 59 +32 +38 очень
душно
1012.8 1012.4
12 17.07 СЗ 3
{4}
50 км 9/1
[Cu hum As trans Cs]
+28.2 +14.8 44 +31 +38 душно 1012.6 1012.2
13 17.07 З 2
{5}
50 км 6/1 1500 м
[Cu med, cong Ci sp]
+28.8 +13.1 38 +30 +42 жарко 1012.2 1011.8
14 17.07 З 3
{5}
50 км 3/1 1500 м
[Cu med, cong Ci sp]
+29.0 +12.4 36 +30 +39 жарко 1011.9 1011.5
15 17.07 З 3
{5}
50 км 1/1 1500 м
[Cu med, cong Ci sp]
+29.1 +11.6 34 +30 +36 жарко 1011.6 1011.2
16 17.07 З 3
{4}
50 км 1/0
[Ci sp]
+29.1 +12.1 35 +30 +34 жарко 1011.2 1010.8
17 17.07 ЮЗ 3
{4}
50 км 3/0
[Ci sp]
+27.6 +13.4 42 +29 +31 жарко 1011.0 1010.6
18 17.07 В 1
{3}
50 км 5/0
[Ci sp]
+26.0 +13.3 45 +28 +28 жарко 1011.0 1010.6 +29.5
19 17.07 ЮВ 2
{2}
50 км 4/0
[Ci sp]
+23.8 +14.5 56 +26 +26 жарко 1011.0 1010.6
20 17.07 ЮВ 4
{5}
50 км 4/0
[Ci sp]
+20.6 +14.2 67 +23 +23 комфорт 1011.1 1010.7
21 17.07 ЮВ 4
{5}
50 км н/о +20.5 +13.6 65 +23 +23 комфорт 1011.2 1010.8
22 17.07 ЮВ 3
{4}
50 км н/о +19.0 +13.3 70 +20 +20 1011.6 1011.2
23 17.07 ЮВ 3
{4}
50 км н/о +17.8 +12.9 73 +18 +18 1011.4 1011.0
00 18.07 ЮВ 4
{5}
50 км н/о +18.0 +12.3 69 +18 +18 1011.3 1010.9
01 18.07 ЮВ 2
{4}
50 км н/о +18.4 +12.4 68 +19 +19 1011.6 1011.2
02 18.07 ЮВ 1
{2}
50 км н/о +18.8 +14.0 74 +21 +21 комфорт 1011.6 1011.2
03 18.07 СВ 3
{9}
50 км н/о +22.2 +14.4 61 +25 +25 комфорт 1011.2 1010.8
04 18.07 В 4 50 км 9/4 1200 м
[Cu Sc Ac As]
+21.1 +13.7 63 +24 +24 комфорт 1011.1 1010.7
06 18.07 ЮВ 3
{4}
50 км 6/1 1500 м
[Cu Sc Ac trans Ci sp]
+22.6 +14.9 62 +26 +28 жарко 1011.2 1010.8 +17.6
07 18.07 ЮВ 2 50 км 6/1 1500 м
[Cu Sc Ac trans Ci sp]
+24.9 +15.5 56 +28 +33 жарко 1011.3 1010.9
08 18.07 СЗ 2
{3}
50 км 6/1 1500 м
[Sc Ac trans Ci fib]
+24.2 +16.9 64 +28 +35 душно 1011.5 1011.1
09 18.07 З 2
{3}
50 км 5/0
[Ac trans Ci fib]
+26.0 +17.2 58 +30 +41 душно 1011.7 1011.3
10 18.07 СЗ 4
{5}
50 км 5/0
[Ac cast Ci fib]
+26.7 +17.8 58 +31 +39 душно 1011.8 1011.4
11 18.07 СЗ 4
{5}
50 км 6/0
[Ac cast Ci fib]
+27.4 +19.8 63 +33 +42 очень
душно
1011.9 1011.5
12 18.07 СЗ 4
{5}
50 км 6/1 1500 м
[Cu med, cong Ac trans Ci fib]
+27.5 +14.9 46 +30 +38 жарко 1012.0 1011.6
13 18.07 З 4
{6}
50 км 9/1 1500 м
[Cu med, cong Ac As Ci fib]
+26.8 +15.0 48 +29 +35 жарко 1012.1 1011.7
14 18.07 З 3
{4}
50 км 9/1
[Cu med, cong Ac As]
+27.6 +15.2 47 +30 +34 жарко 1012.2 1011.8
15 18.07 З 3
{5}
50 км 8/0
[Ac As Ci fib]
+27.1 +12.1 39 +28 +32 жарко 1012.0 1011.6
16 18.07 СВ 2
{2}
50 км 9/0
[Ac As]
+26.8 +13.1 43 +29 +30 жарко 1011.9 1011.5
17 18.07 С 1
{3}
50 км 8/0
[Ac As]
+25.9 +16.5 56 +29 +30 душно 1012.0 1011.6
18 18.07 штиль 0
{1}
50 км 9/0
[Ac As Ci fib]
+26.9 +15.3 49 +30 +30 душно 1012.4 1012.0 +28.4
19 18.07 СВ 1
{2}
50 км 8/0
[Ac und Ci fib]
+24.0 +16.3 62 +27 +27 жарко 1012.7 1012.3
20 18.07 ЮВ 2
{3}
50 км 4/0
[Ac trans]
+21.1 +15.6 71 +24 +24 комфорт 1013.5 1013.1
21 18.07 ЮВ 3
{4}
50 км н/о +19.7 +14.8 73 +22 +22 комфорт 1014.0 1013.6
22 18.07 ЮВ 4
{4}
50 км н/о +19.7 +14.8 73 +22 +22 комфорт 1014.2 1013.8
23 18.07 ЮВ 3
{4}
50 км н/о +18.5 +14.6 78 +19 +19 1014.3 1013.9
00 19.07 ЮВ 3
{4}
50 км н/о +17.5 +14.6 83 +18 +18 1014.3 1013.9
01 19.07 ЮВ 4
{5}
50 км н/о +17.2 +14.7 85 +17 +17 1014.4 1014.0
02 19.07 ЮВ 3
{4}
50 км н/о +17.2 +14.6 85 +17 +17 1014.5 1014.1
03 19.07 ЮВ 3
{4}
45 км н/о +16.2 +14.1 87 +16 +16 1014.8 1014.4
04 19.07 ЮВ 3
{5}
50 км 4/0
[Ac trans Ci fib]
+16.6 +13.9 84 +16 +16 1014.8 1014.4
05 19.07 ЮВ 3
{4}
50 км 4/0
[Ac trans Ci fib]
+17.2 +14.3 83 +17 +18 1015.0 1014.6

 

Местоположение метеостанции Порторож (Словения): широта 45.52 долгота 13.57 высота над уровнем моря 95 м.

В архиве по умолчанию представлена погода в Портороже за последнюю неделю. Архивные данные за месяц целиком и за предыдущие месяцы, начиная с января 2011 года, Вы можете получить, выбрав интересующий диапазон дат из раскрывающегося списка и нажав кнопку "Ввод!".


*Определитесь, кто Вы:
робот инопланетянин человек

Внимание! Время в таблицах - всемирное. Для получения местного времени необходимо прибавить поправку, которая равна 1 ч.

Смотрите также архив погоды в соседних городах и на ближайших метеорологических станциях:

Погода в Триесте (Италия) (20 км)
Погода в Ронки-деи-Леджонари (Италия) (34 км)
Погода в Новой Горице (Словения) (43 км)
Погода в Пазине (Хорватия) (43 км)
Погода в Постойнской (Словения) (56 км)
Погода в Конкордия-Саджиттарии (Италия) (62 км)
Погода на Войско (Словения) (62 км)
Погода на Базе ВВС Риволто (Италия) (66 км)
Погода в Риеке (Хорватия) (72 км)
Погода в Пуле (Хорватия) (74 км)

Пояснения к столбцам:

Ветер - указаны скорость ветра в м/с - средняя за 10 мин, порывы в срок и между сроками (в фигурных скобках) и направление, откуда дует ветер: С - северный, СВ - северо-восточный, В - восточный, ЮВ - юго-восточный, Ю - южный, ЮЗ - юго-западный, З - западный, СЗ - северо-западный.
Видимость - горизонтальная дальность видимости в метрах или километрах. При видимости от 1 до 10 км при отсутствии осадков обычно наблюдается дымка, при ухудшении видимости до 1 км и менее - туман. В сухую погоду видимость может ухудшаться дымом, пылью или мглою.
Явления - указаны атмосферные явления, наблюдавшиеся в срок или в последний час перед сроком; фигурными скобками обозначены явления, наблюдавшиеся между сроками (за 1-3 часа до срока); квадратными скобками обозначены град или гололедные отложения с указанием их диаметра в мм.
Облачность - указаны через наклонную черту общая и нижняя облачность в баллах и высота нижней границы облаков в метрах; квадратными скобками обозначены формы облаков: Ci - перистые, Cs - перисто-слоистые, Cc - перисто-кучевые, Ac - высококучевые, As - высокослоистые, Sc - слоисто-кучевые, Ns - слоисто-дождевые, Cu - кучевые, Cb - кучево-дождевые. Подробнее классификацию облаков см. в Атласе облаков (PDF).
T - Температура воздуха - температура, измеренная на высоте 2 м над землей.
Td - Температура точки росы - температура, при понижении до которой содержащийся в воздухе водяной пар достигнет насыщения.
f - Относительная влажность воздуха - влажноcть воздуха, измеренная на высоте 2 м над землей.
Te - Эффективная температура - температура, которую ощущает одетый по сезону человек в тени. Характеристика душности погоды. При расчете учитывается влияние влажности воздуха и скорости ветра на теплоощущения человека.
Tes - Эффективная температура на солнце - температура, которую ощущает человек, с поправкой на солнечный нагрев. Характеристика знойности погоды. Зависит от высоты солнца над горизонтом, облачности и скорости ветра. Ночью, в пасмурную погоду, а также при ветре 12 м/с и более поправка равна нулю.
P - Атмосферное давление - приведенное к уровню моря атмосферное давление.
Po - Атмосферное давление - измеренное на уровне метеостанции атмосферное давление.
Tmin - Минимальная температура - минимум температуры воздуха на высоте 2 м над землей.
Tmax - Максимальная температура - максимум температуры воздуха на высоте 2 м над землей.
R - Количество осадков - Количество выпавших осадков за период времени, мм. При наведении курсора мыши на число - период времени, за который выпало указанное количество осадков.
R24 - Количество осадков - Количество выпавших осадков за 24 часа, мм.
S - Снежный покров - Высота снежного покрова, см. При наведении курсора мыши на число - состояние снежного покрова и степень покрытия местности в баллах.